www.pogodaiklimat.ru

Погода и климат >> Архив погоды >> Россия >> Чукотка >> Эгвекинот


АРХИВ ПОГОДЫ в Эгвекиноте

Время (UTC), дата Ветер
(напр.,м/с)
 
Видим.   Явления Облачность Т
(С)
Тd
(С)
f
(%)
Тe
(С)
Тes
(С)
Комфортность P
(гПа)
Po
(гПа)
Тmin
(С)
Tmax
(С)
R
(мм)
R24
(мм)
S
(см)
00 17.01 С 11-15
{17}
4000 м слаб. снег {метель} 10/9 600 м
[Sc As op]
-10.5 -14.8 71 -22 -22 1006.9 1004.0
03 17.01 СВ 8-12
{15}
4000 м слаб. снег {метель} 10/9 600 м
[Sc As op]
-10.6 -15.5 67 -20 -20 1008.3 1005.4
06 17.01 СВ 6
{13}
4000 м слаб. снег {метель} 10/8 600 м
[Sc As op]
-11.0 -14.6 75 -20 -20 1009.0 1006.1 -8.9 0.6
09 17.01 С 7
{10}
2000 м снег {метель} 10/8 600 м
[Sc As op]
-12.2 -14.2 85 -22 -22 1008.6 1005.7
12 17.01 С 5
{10}
2000 м снег {метель} 10/8 600 м
[Sc As op]
-13.2 -15.9 80 -22 -22 1009.3 1006.3
18 17.01 С 4
{8}
2000 м снег {метель} 10/6 600 м
[Sc As op]
-14.7 -16.7 85 -22 -22 1009.5 1006.5 -14.7 2 24
00 18.01 ЮВ 1
{6}
4000 м слаб. снег 10/6 600 м
[Sc As op]
-18.1 -21.0 78 -21 -21 1011.7 1008.6
06 18.01 Ю 1
{3}
4000 м слаб. снег 10/8 600 м
[Sc As op]
-20.4 -23.4 77 -23 -23 1013.2 1010.1 -14.4 0.7
09 18.01 С 1
{3}
4000 м слаб. снег 10/8 600 м
[Sc As op]
-20.6 -23.6 77 -24 -24 1014.5 1011.4
12 18.01 штиль 0
{2}
10 км снежные кристаллы 10/1 1000 м
[Sc Cs]
-22.7 -25.9 75 -23 -23 1015.9 1012.8
15 18.01 С 2
{4}
20 км {снег} 3/0
[Ci fib]
-26.5 -30.5 69 -33 -33 опасность
обморожения
1017.0 1013.9
18 18.01 штиль 0
{3}
20 км {снег} ясно -28.8 -32.9 68 -29 -29 1017.8 1014.6 -28.8 0.0 24
21 18.01 штиль 0
{2}
10 км дымка 5/3 600 м
[Sc Ci fib]
-28.4 -30.8 80 -28 -28 1018.8 1015.6 -29.7
00 19.01 ЮЗ 2
{2}
20 км 3/0
[Ci fib]
-28.7 -32.7 68 -36 -36 опасность
обморожения
1019.0 1015.8
03 19.01 С 3
{4}
20 км 1/0
[Ci fib]
-29.4 -33.3 69 -39 -39 опасность
обморожения
1019.0 1015.8
06 19.01 штиль 0
{4}
20 км 1/0
[Ci fib]
-28.8 -32.7 69 -29 -29 1019.3 1016.1 -26.1
09 19.01 Ю 3
{5}
4000 м дымка 3/0
[Ci fib]
-28.1 -31.1 75 -37 -37 опасность
обморожения
1019.3 1016.1
12 19.01 Ю 4
{5}
4000 м дымка 5/0
[Ac trans]
-27.6 -31.4 70 -38 -38 опасность
обморожения
1019.7 1016.5
15 19.01 С 4
{5}
4000 м дымка 10/0
[Ac trans Ci sp]
-24.3 -27.7 73 -34 -34 опасность
обморожения
1019.5 1016.3
18 19.01 СВ 1
{5}
4000 м слаб. снег 10/0
[As op]
-22.1 -25.4 74 -25 -25 1018.9 1015.8 -29.6 0.2 24
21 19.01 штиль 0
{5}
20 км {снег} ясно -25.1 -28.7 72 -25 -25 1019.7 1016.5 -29.6
00 20.01 С 1
{3}
20 км {снег} ясно -26.1 -29.8 71 -30 -30 1020.6 1017.4
03 20.01 С 1
{2}
20 км ясно -25.4 -28.9 72 -29 -29 1020.8 1017.6
06 20.01 ЮЗ 1
{3}
20 км ясно -28.0 -32.0 68 -32 -32 опасность
обморожения
1021.6 1018.4 -22.0 0.0
09 20.01 штиль 0
{3}
20 км ясно -27.5 -31.3 70 -28 -28 1023.4 1020.2
12 20.01 ЮЗ 1
{3}
20 км ясно -26.5 -30.2 71 -30 -30 1023.7 1020.5
15 20.01 СЗ 1
{2}
20 км ясно -25.6 -29.0 73 -29 -29 1024.1 1020.9
18 20.01 СВ 1
{3}
20 км 3/0
[Ci fib]
-29.6 -31.3 85 -34 -34 опасность
обморожения
1025.0 1021.8 -29.6 24
21 20.01 С 1
{3}
20 км 3/0
[Ci fib]
-24.4 -25.6 90 -28 -28 1026.2 1023.0 -29.6
00 21.01 ЮЗ 1
{2}
20 км 8/0
[Ci fib]
-23.3 -25.1 85 -27 -27 1026.7 1023.5
03 21.01 штиль 0
{3}
20 км 10/0
[Ci fib]
-23.6 -24.8 90 -24 -24 1026.1 1022.9
06 21.01 штиль 0
{3}
20 км 8/0
[Ci fib]
-23.8 -25.0 90 -24 -24 1025.8 1022.6 -22.1
09 21.01 штиль 0
{3}
20 км ясно -22.4 -23.6 90 -22 -22 1025.5 1022.4
12 21.01 ЮЗ 1
{3}
20 км ясно -26.4 -27.6 90 -30 -30 1024.6 1021.4
15 21.01 С 1
{3}
20 км ясно -26.7 -28.5 85 -30 -30 1023.2 1020.0
18 21.01 штиль 0
{3}
20 км ясно -28.3 -29.4 90 -28 -28 1022.4 1019.2 -29.3 21
21 21.01 З 1
{3}
20 км ясно -29.1 -30.9 84 -33 -33 опасность
обморожения
1021.9 1018.7 -29.3
00 22.01 С 8-12
{13}
20 км позёмок ясно -15.5 -22.3 56 -27 -27 1020.6 1017.6
03 22.01 С 10-15
{17}
10 км позёмок 5/5 600 м
[Sc]
-16.6 -23.8 54 -29 -29 1019.9 1016.9
06 22.01 С 11-16
{19}
20 км позёмок 3/3 1000 м
[Sc]
-18.6 -25.6 54 -32 -32 опасность
обморожения
1020.2 1017.1 -15.4
09 22.01 СЗ 10-17
{20}
20 км позёмок ясно -18.8 -26.8 49 -32 -32 опасность
обморожения
1019.4 1016.3
12 22.01 С 10-19
{19}
4000 м метель ясно -19.7 -27.0 52 -33 -33 опасность
обморожения
1018.1 1015.0
15 22.01 С 15-24
{24}
1000 м метель ясно -17.6 -24.1 57 -33 -33 опасность
обморожения
1014.6 1011.5
18 22.01 С 15-25
{25}
1000 м метель ясно -18.5 -25.3 55 -34 -34 опасность
обморожения
1014.6 1011.5 -19.7 18
21 22.01 С 11-22
{25}
1000 м метель ясно -18.3 -25.3 54 -32 -32 опасность
обморожения
1015.1 1012.0 -19.7
00 23.01 С 12-20
{23}
1000 м метель 1/0
[Ci fib]
-16.5 -24.6 50 -30 -30 1014.0 1011.0
03 23.01 С 12-22
{22}
4000 м метель 1/0
[Ac trans]
-15.9 -24.4 48 -29 -29 1012.9 1009.9
06 23.01 С 15-23
{26}
4000 м метель 3/0
[Ac trans]
-16.0 -23.6 52 -30 -30 1012.2 1009.2 -15.6
09 23.01 С 14-21
{26}
4000 м метель ясно -15.2 -23.3 50 -29 -29 1011.6 1008.6
12 23.01 С 15-23
{26}
4000 м метель ясно -15.4 -22.8 53 -30 -30 1010.6 1007.6
15 23.01 С 16-25
{26}
4000 м метель ясно -15.6 -23.3 52 -30 -30 1010.0 1007.0
18 23.01 СЗ 16-26
{26}
4000 м метель ясно -15.9 -23.5 52 -31 -31 опасность
обморожения
1009.2 1006.2 -16.6 6
21 23.01 С 17-25
{27}
2000 м метель 1/0
[Ci fib]
-16.5 -24.1 52 -32 -32 опасность
обморожения
1009.6 1006.6 -16.7

 

Местоположение метеостанции Эгвекинот (Чукотка, Россия): широта 66.35 долгота -179.00 высота над уровнем моря 22 м.

В архиве по умолчанию представлена погода в Эгвекиноте за последнюю неделю. Архивные данные за месяц целиком и за предыдущие месяцы, начиная с января 2011 года, Вы можете получить, выбрав интересующий диапазон дат из раскрывающегося списка и нажав кнопку "Ввод!".


*Определитесь, кто Вы:
робот инопланетянин человек

Внимание! Время в таблицах - всемирное. Для получения местного времени необходимо прибавить поправку, которая равна 12 ч.

Смотрите также архив погоды в соседних городах и на ближайших метеорологических станциях:

Погода на Мысе Ванкарем (Чукотка, Россия) (239 км)
Погода на Мысе Шмидта (Чукотка, Россия) (280 км)
Погода в Уэлене (Чукотка, Россия) (448 км)
Погода на Острове Врангеля (Чукотка, Россия) (517 км)

Пояснения к столбцам:

Ветер - указаны скорость ветра в м/с - средняя за 10 мин, порывы в срок и между сроками (в фигурных скобках) и направление, откуда дует ветер: С - северный, СВ - северо-восточный, В - восточный, ЮВ - юго-восточный, Ю - южный, ЮЗ - юго-западный, З - западный, СЗ - северо-западный.
Видимость - горизонтальная дальность видимости в метрах или километрах. При видимости от 1 до 10 км при отсутствии осадков обычно наблюдается дымка, при ухудшении видимости до 1 км и менее - туман. В сухую погоду видимость может ухудшаться дымом, пылью или мглою.
Явления - указаны атмосферные явления, наблюдавшиеся в срок или в последний час перед сроком; фигурными скобками обозначены явления, наблюдавшиеся между сроками (за 1-3 часа до срока); квадратными скобками обозначены град или гололедные отложения с указанием их диаметра в мм.
Облачность - указаны через наклонную черту общая и нижняя облачность в баллах и высота нижней границы облаков в метрах; квадратными скобками обозначены формы облаков: Ci - перистые, Cs - перисто-слоистые, Cc - перисто-кучевые, Ac - высококучевые, As - высокослоистые, Sc - слоисто-кучевые, Ns - слоисто-дождевые, Cu - кучевые, Cb - кучево-дождевые. Подробнее классификацию облаков см. в Атласе облаков (PDF).
T - Температура воздуха - температура, измеренная на высоте 2 м над землей.
Td - Температура точки росы - температура, при понижении до которой содержащийся в воздухе водяной пар достигнет насыщения.
f - Относительная влажность воздуха - влажноcть воздуха, измеренная на высоте 2 м над землей.
Te - Эффективная температура - температура, которую ощущает одетый по сезону человек в тени. Характеристика душности погоды. При расчете учитывается влияние влажности воздуха и скорости ветра на теплоощущения человека.
Tes - Эффективная температура на солнце - температура, которую ощущает человек, с поправкой на солнечный нагрев. Характеристика знойности погоды. Зависит от высоты солнца над горизонтом, облачности и скорости ветра. Ночью, в пасмурную погоду, а также при ветре 12 м/с и более поправка равна нулю.
P - Атмосферное давление - приведенное к уровню моря атмосферное давление.
Po - Атмосферное давление - измеренное на уровне метеостанции атмосферное давление.
Tmin - Минимальная температура - минимум температуры воздуха на высоте 2 м над землей.
Tmax - Максимальная температура - максимум температуры воздуха на высоте 2 м над землей.
R - Количество осадков - Количество выпавших осадков за период времени, мм. При наведении курсора мыши на число - период времени, за который выпало указанное количество осадков.
R24 - Количество осадков - Количество выпавших осадков за 24 часа, мм.
S - Снежный покров - Высота снежного покрова, см. При наведении курсора мыши на число - состояние снежного покрова и степень покрытия местности в баллах.